Погода в Невинномысске

Погода в Невинномысске : погода сейчас, прогноз погоды и архив. Всё, что Вы хотите узнать о погоде в Невинномысске!

Поиск расширенной информации на нашем сайте:

Другие новости

Новости СМИ2

Главная страница сайта

Новости сайта

02.10.2013

Напоминаем, что на нашем новом сайте вы можете получить высокодетализированные прогнозы погоды по пунктам России, СНГ и мира (включающие важные для авиации метеовеличины, такие как направление и скорость ветра, видимость, явления погоды, количество и форма облачности, нижняя и верхняя граница облачности), а также ознакомиться с разнообразными материалами по авиационной метеорологии и подборкой полезных ссылок на эту тему.

Сайт Метеоцентр.Азия посвящён разработке технологий оптимизации авиаметеорологического обслуживания, включая проектирование и перспективное создание нескольких автоматизированных авиаметеорологических систем:
- система выпуска высокодетальных прогностических карт явлений погоды для нижнего воздушного пространства по России и ближнему зарубежью;
- система верификации прогнозов TAF (выпускаемых синоптиками официальных АМСГ РФ и ближнего зарубежья) и AUTOTAF (выпускаемых сайтом Метеоцентр.Азия) - выявление ошибок, онлайн-сопоставление с фактической погодой METAR, автоматическое внесение коррективов в прогнозы при резком отклонении фактической погоды от прогноза, подсчёт оправдываемости прогнозов по элементам и в целом;
- система обработки, анализа и отображения авиаметеорологической информации для применения провайдерами метеорологической информации.

Рекомендуем: Возвращаемся в Гондар и, заселившись в гостиницу.

Погода в Невинномысске - сегодня

Время (UTC), дата Ветер
(°,м/с) 
Видим.   Явления Облачность Т
(°С)
Тd
(°С)
f(%) Тe
(°С)
Pmin
(гПа)
dP
(гПа)
Po
(мм)
O2
(г/м3)
Тmin Tmax R s Состояние
почвы
09 26.04.17 080 (В) 6-11{14}  20000 м    ясно 
+15.3 -0.9 33 +15  1028  -1.6  741  283           
12 26.04.17 080 (В) 6-12{13}  20000 м    ясно 
+16.6 -1.5 29 +16  1026.5  -1.2  740  281           
15 26.04.17 090 (В) 5-10{14}  20000 м    ясно 
+15.2 -1.2 32 +15  1026.1  -0.6  739  282    +17       
18 26.04.17 070 (В) 3{10}  20000 м    ясно 
+8.7 -1.1 50 +8  1027.2  0.2  739  289           
21 26.04.17 080 (В) 20000 м    ясно 
+7.7 -0.7 55 +6  1027  -0.3  739  290           
00 27.04.17 060 (СВ) 20000 м    ясно 
+3.6 -0.7 73 +2  1026.5  -1.1  738  294           
03 27.04.17 010 (С) 20000 м    ясно 
+1.8 -1.3 80 +1  1026.7  -0.1  738  296  +1.7        сухая 
06 27.04.17 070 (В) 5{10}  20000 м    ясно 
+10.6 +2.2 56 +9  1024.7  -0.6  738  286           
09 27.04.17 080 (В) 7-13{13}  20000 м    ясно 
+14.2 +2.4 45 +13  1023.6  -0.6  737  282           
12 27.04.17 070 (В) 5-10{13}  20000 м    ясно 
+18.5 +4.7 40 +19  1021.5  -1.4  736  277           
15 27.04.17 080 (В) 4{12}  20000 м    ясно 
+18.1 +2.7 36 +18  1020.7  -0.8  736  278    +19       
18 27.04.17 090 (В) 20000 м    ясно 
+12.5 +0.6 44 +12  1022.2  0.6  736  283           
21 27.04.17 040 (СВ) 20000 м    ясно 
+5.9 +0.8 70 +6  1022.7  -0.4  736  290           
00 28.04.17 050 (СВ) 20000 м    ясно 
+4 +1.1 81 +5  1021.6  -1.3  735  292           
03 28.04.17 190 (Ю) 20000 м    ясно 
+1.2 -0.3 90 +2  1022  0.1  735  295  +0        сухая 
06 28.04.17 тихо ()   20000 м    ясно 
+14.9 +3.7 47 +15  1019.3  -0.5  734  280           
09 28.04.17 340 (С) 20000 м    ясно 
+20.4 +3.1 32 +20  1017.6  -0.8  734  275           
12 28.04.17 300 (СЗ) 20000 м    ясно 
+22 +1.4 26 +22  1017.2  -0.2  734  273           
15 28.04.17 260 (З) 20000 м    ясно 
+21.2 -0.2 24 +21  1017.3  0.1  733  274    +22.5       
18 28.04.17 190 (Ю) 20000 м    ясно 
+9.2 +3.3 67 +9  1019.5  0.5  734  285           
21 28.04.17 тихо ()   20000 м    ясно 
+6.1 +2.1 75 +6  1019.9  734  289           
00 29.04.17 тихо ()   20000 м    ясно 
+4 +1.3 83 +4  1020  -0.2  734  291           
03 29.04.17 тихо ()   20000 м    ясно 
+4.3 +1.7 83 +4  1020.2  0.2  734  291  +3.4  +22.5      сухая 
06 29.04.17 тихо ()   20000 м    ясно 
+17.4 +3.8 40 +17  1018  -0.3  734  277           
09 29.04.17 050 (СВ) 20000 м    ясно 
+24 +2.7 25 +24  1016  -1  733  271           
Время (UTC), дата Ветер
(°,м/с) 
Видим.   Явления Облачность Т
(°С)
Тd
(°С)
f(%) Тe
(°С)
Pmin
(гПа)
dP
(гПа)
Po
(мм)
O2
(г/м3)
Тmin Tmax R s Состояние
почвы

Для получения пояснительной информации подведите курсор к названию столбца.

ПОГОДА в Невинномысске - архив

Всё, что Вы хотите узнать о погоде в Невинномысске - удобно и подробно!

Выберите нужную дату (начиная с 1 января 2015* года) и нажмите кнопку "Найти".
Будут отображены архивные сводки погоды по пункту Невинномысск, начиная с указанной даты.


Отображать данные в формате CSV (для использования в таблицах Excel)


Внимание! Наш архив погоды предназначен исключительно для личного некоммерческого использования в познавательных целях. Если Вам необходимы официальные справки о состоянии погоды (для производственных, юридических, коммерческих и т.п. целей), обращайтесь в органы Росгидромета.

*Примечание: данная дата относится к архиву по метеостанциям СССР (Россия, СНГ, Балтия).
Архив по метеостанциям Зарубежной Европы и Азии (кроме Китая) хранится 10 дней, по другим регионам земного шара (Китай, Африка, Америка, Австралия, Океания) - 1 день.

Невинномысск - район местоположения метеостанции


Название, широта, долгота, высота метеостанции:
Невинномысск 44.6°ш. 42°д. 343 м над ур. моря [Российская Федерация]

Дополнительная информация

В oтличие oт бoльшинства пoгoдных сайтoв мы публикуем пoдрoбную метеoинфoрмацию в детальнoм прoфессиoнальнoм фoрмате.

Характеристики температуры и влажнoсти вoздуха измеряются на высoте 2 м в тени вдали oт зданий и деревьев.
Скoрoсть ветра измеряется на высoте 10 м (на урoвне рoста челoвека скoрoсть ветра ниже в 1.5-2 раза). Если метеoстанция нахoдится в гoрoде или в лесу, тo скoрoсть ветра занижена на 2-4 м/с пo сравнению с oткрытым местoм. Скoрoсть ветра над акватoриями крупных рек и oзёр, а также на вершинах хoлмoв на 2-5 м/с выше, чем в oбычных услoвиях.
Атмoсфернoе давление в разных тoчках местнoсти мoжет значительнo oтличаться oт давления на метеoстанции, в зависимoсти oт услoвий рельефа (при пoдъёме на 10 м давление пoнижается примернo на 1 мм рт.ст.).